Flag for South Africa Weather past 2 weeks in Bloemfontein, South Africa

Now
41 °F

Quite cool.


Feels Like: 36 °F
Forecast: 34 / 65 °F
Wind: 8 mph from Southwest

Location: Bloemfontein Airport

Current Time: Aug 30, 2014 at 10:43:13 PM

Latest Report: Aug 30, 2014 at 10:00 PM


Visibility: N/A

Pressure: 30.39 "Hg

Humidity: 45%

Dew point: 21 °F

Location of BloemfonteinLocation

Historic Weather in Bloemfontein — Graph

°F

Bloemfontein temperature yesterday

Maximum temperature yesterday: 52 °F (at 4:00 PM)
Minimum temperature yesterday: 28 °F (at 7:00 AM)
Average temperature yesterday: 40 °F

Past Weeks' High & Low Weather Summary

 TemperatureHumidityPressure
High79 °F (Aug 27, 2:00 PM)88% (Aug 19, 7:00 AM)30.54 "Hg (Aug 19, 7:00 AM)
Low23 °F (Aug 23, 7:00 AM)4% (Aug 26, 5:00 PM)29.95 "Hg (Aug 27, 3:00 PM)
Average51 °F47%30.20 "Hg
* Reported Aug 15 9:00 PM — Aug 30 9:00 PM, Bloemfontein, Weather by CustomWeather, © 2014

Note: Actual official high and low records may vary slightly from our data, if they occured in-between our weather recording intervals... More about our weather records

Advertising

Bloemfontein weather history for previous 24 hours

 ConditionsComfort  
Time TempWeatherWind HumidityBarometerVisibility
9:00 PM
Aug 30
45 °FQuite cool.8 mph31%30.36 "HgN/A
8:00 PM46 °FClear.1 mph25%30.42 "Hg10 mi
7:00 PM52 °FClear.8 mph20%30.36 "Hg10 mi
6:00 PM57 °FClear.9 mph18%30.36 "Hg10 mi
5:00 PM61 °FClear.10 mph11%30.39 "Hg10 mi
4:00 PM61 °FPassing clouds.10 mph20%30.33 "HgN/A
3:00 PM59 °FPassing clouds.12 mph20%30.33 "HgN/A
2:00 PM59 °FSunny.12 mph17%30.39 "Hg10 mi
1:00 PM55 °FPassing clouds.10 mph23%30.39 "HgN/A
12:00 PM54 °FPassing clouds.13 mph28%30.42 "HgN/A
11:00 AM50 °FSunny.16 mph32%30.48 "Hg10 mi
10:00 AM46 °FSunny.20 mph43%30.45 "Hg10 mi
9:00 AM41 °FSunny.21 mph57%30.45 "Hg10 mi
8:00 AM37 °FSunny.12 mph70%30.42 "Hg10 mi
7:00 AM30 °FSunny.6 mph86%30.42 "Hg10 mi
6:00 AM34 °FSunny.10 mph81%30.39 "Hg10 mi
5:00 AM32 °FClear.9 mph87%30.39 "Hg10 mi
4:00 AM34 °FChilly.7 mph81%30.36 "HgN/A
3:00 AM32 °FChilly.7 mph80%30.36 "HgN/A
2:00 AM34 °FChilly.8 mph75%30.36 "HgN/A
1:00 AM36 °FChilly.7 mph70%30.36 "HgN/A
12:00 AM37 °FChilly.8 mph60%30.36 "HgN/A
11:00 PM
Aug 29
37 °FChilly.7 mph56%30.36 "HgN/A
Weather by CustomWeather, © 2014

See weather overviewHow to use our weather pages